Wind_Speed
23 19 20 20 20 17 16 13 11 8 5 6 7 7 7 10 9 5 6 6 7 6 6 5 5 5 2 2 2 4 4 7 13 16 18 20 21 21 20 21 22 23 25
24 17 12 12 14 15 16 13 10 10 10 10 9 8 7 9 11 8 5 5 6 5 4 3 2 2 1 5 6 8 10 10 16 22 23 25 24 24 25 27 27 27 30
19 15 13 9 13 14 14 15 15 14 13 11 12 10 8 9 10 10 7 6 5 1 2 3 4 5 5 7 12 10 15 13 16 22 27 27 28 28 31 31 32 30 29
19 13 7 7 8 11 12 14 13 12 12 11 11 9 7 7 6 6 4 3 2 2 6 7 8 7 8 15 16 16 21 21 23 26 29 32 35 37 37 37 37 35 43
9 5 4 5 5 6 7 9 11 10 9 8 8 8 8 7 4 4 7 5 4 6 7 8 8 8 11 14 17 17 23 28 28 31 33 35 38 41 39 35 38 45 47
2 3 7 8 6 4 9 9 8 10 12 13 11 11 14 12 13 11 12 9 11 10 10 12 12 13 13 14 16 22 24 27 29 32 32 37 41 40 40 39 41 46 54
7 8 7 7 6 4 3 2 3 5 7 7 11 10 8 5 2 4 8 12 13 13 13 13 9 10 12 15 20 23 26 25 27 25 34 38 40 35 35 40 42 42 38
8 3 4 6 1 3 6 1 1 1 2 4 5 5 6 7 7 8 10 13 16 16 16 13 13 15 17 19 21 24 26 27 28 30 37 35 28 26 26 29 31 36 41
6 5 4 2 4 4 2 2 2 3 3 4 4 5 8 9 8 10 12 17 20 21 20 18 18 21 24 23 22 24 26 29 29 35 25 23 24 25 25 29 34 35 40
8 5 6 5 2 3 1 3 6 8 8 8 6 7 10 13 13 15 19 22 24 25 23 21 21 26 20 22 23 25 27 31 33 21 23 24 25 25 24 27 31 30 35
6 8 6 7 5 4 5 6 8 11 11 13 13 14 17 19 20 21 23 25 27 26 25 26 26 24 21 21 22 27 32 32 23 25 27 28 29 29 31 28 23 34 41
9 7 7 7 7 6 9 10 13 13 14 14 14 17 17 18 18 21 22 22 27 25 26 23 18 18 21 25 27 28 24 20 25 25 27 28 31 27 20 29 36 34 39
9 7 9 9 7 7 11 13 13 14 16 16 16 17 18 18 18 19 18 18 20 21 23 15 16 18 21 24 24 14 18 18 17 20 24 29 22 27 36 39 36 39 39
12 11 11 12 10 11 12 14 17 17 17 17 17 17 15 16 16 15 15 14 13 15 15 15 17 21 26 19 13 10 12 18 20 23 26 27 31 34 34 37 33 40 42
11 10 11 11 10 12 15 17 18 19 17 16 14 14 14 13 9 8 8 9 10 13 16 19 19 17 6 8 9 17 23 23 22 23 27 29 27 31 39 32 34 38 40
10 10 11 13 15 15 16 16 15 14 14 12 14 12 7 5 7 7 8 8 9 12 12 7 8 6 10 11 14 19 19 20 21 25 27 24 29 34 32 33 35 38 44
14 16 16 15 13 12 11 12 13 11 8 12 9 9 9 7 7 9 6 2 8 11 5 6 9 10 13 14 16 18 20 23 25 24 21 25 29 30 30 33 39 42 47
14 9 8 10 7 10 14 14 13 13 15 10 11 14 14 14 11 9 7 7 6 7 10 10 13 12 10 13 19 20 23 23 20 18 24 28 28 26 30 36 44 43 49
14 13 11 12 13 14 13 13 16 18 18 16 15 17 17 19 16 14 10 11 11 11 9 12 14 14 15 19 19 21 21 18 21 23 29 25 25 28 34 41 47 45 46
12 12 14 17 17 17 16 15 19 17 17 19 23 21 20 22 22 20 17 17 17 13 13 14 13 12 15 17 19 18 18 20 24 26 23 25 28 33 39 44 42 45 40
17 17 14 14 15 13 11 19 13 14 16 19 23 24 22 22 23 23 23 21 16 12 13 11 15 19 22 24 21 19 23 24 22 22 25 27 30 36 40 41 40 41 32
15 14 15 14 14 16 13 12 16 23 22 21 21 25 30 29 30 28 27 24 19 19 18 24 27 28 25 28 19 18 22 23 24 26 27 29 34 38 40 37 39 33 30
18 16 17 16 15 17 21 20 22 23 23 23 26 29 30 28 29 33 32 28 24 27 25 24 27 25 26 16 13 18 22 22 24 26 30 32 35 37 36 37 36 29 28
20 20 20 20 23 22 18 19 21 22 23 25 25 25 25 28 29 30 31 30 32 30 26 24 24 21 21 11 14 18 18 23 25 25 28 32 34 34 36 34 32 25 24
15 15 14 14 12 14 17 22 25 27 26 25 23 24 29 32 35 32 27 29 28 27 25 25 21 16 13 13 19 19 20 23 25 25 29 32 32 36 32 32 28 21 21
17 19 19 19 21 24 26 26 26 26 26 28 29 31 31 31 29 20 27 19 16 21 19 11 7 7 12 16 18 20 22 23 26 29 31 32 34 32 31 30 22 19 20
Wind_Direction
157 159 160 161 160 166 163 159 162 174 183 151 135 135 135 147 138 120 119 125 130 120 117 103 101 82 120 74 18 341 318 313 305 312 317 321 325 324 323 323 320 319 316
160 155 154 159 170 177 177 173 178 183 161 148 135 136 144 146 150 139 138 113 98 90 92 94 60 65 28 20 351 360 342 322 328 324 330 329 330 329 324 319 318 316 308
160 163 163 162 168 171 173 176 172 169 163 166 169 169 158 154 150 149 156 154 148 329 321 338 334 325 319 332 341 333 345 328 331 331 331 333 330 331 324 319 317 314 308
164 168 170 160 156 162 174 180 181 182 185 184 189 187 189 185 165 163 134 95 259 216 299 332 348 340 333 333 327 328 331 331 331 329 329 332 333 335 329 321 320 311 311
163 187 203 211 172 164 184 201 196 191 199 197 198 199 177 175 176 217 228 239 299 299 299 298 295 296 298 304 308 317 322 323 321 323 324 324 327 327 323 317 305 307 310
224 191 146 127 148 213 198 211 214 211 200 183 198 205 207 219 220 211 245 298 318 305 299 305 295 277 277 288 298 311 309 310 312 314 315 316 319 316 315 309 308 308 313
131 139 134 151 179 150 163 121 200 196 196 213 219 238 243 229 257 250 257 277 285 295 301 307 303 302 292 292 295 297 299 301 302 305 305 314 314 317 312 308 308 308 306
138 129 140 171 202 252 232 190 349 163 206 223 230 248 253 246 254 264 267 276 284 297 307 298 301 301 298 290 285 286 287 288 292 297 308 317 316 322 316 312 307 302 299
150 168 199 175 105 140 126 98 277 285 295 296 299 287 273 266 266 265 276 278 276 285 292 290 290 295 295 292 282 284 281 284 295 308 310 316 318 319 312 306 301 297 294
213 219 229 244 225 262 288 298 310 290 305 309 284 273 273 279 280 278 275 274 275 278 281 279 285 295 286 283 284 288 289 301 312 307 311 315 318 314 308 311 305 292 301
213 210 217 218 231 222 255 265 272 272 273 274 274 280 275 276 277 276 275 276 276 270 266 268 281 294 280 287 287 291 299 307 302 305 311 313 316 314 316 313 306 309 308
191 209 205 222 221 235 247 253 251 259 267 274 277 276 277 278 277 282 282 281 293 269 266 273 289 279 277 281 290 300 302 298 302 306 310 312 315 318 309 302 307 306 306
200 229 219 222 233 232 257 272 275 277 276 281 281 283 288 288 286 287 290 288 288 275 278 273 270 277 284 291 299 293 298 304 311 312 315 317 311 307 313 316 308 312 312
208 210 224 237 251 264 267 276 278 282 287 281 277 282 290 295 295 291 291 285 288 273 273 280 286 293 297 298 307 313 315 317 318 314 314 311 311 319 317 317 318 321 317
223 235 240 251 269 285 289 285 290 288 282 274 271 287 290 296 305 308 303 292 293 281 275 283 296 300 282 309 313 311 311 311 310 308 311 312 311 315 324 324 322 323 318
220 242 263 274 278 286 281 285 287 287 275 270 286 281 292 317 314 312 305 299 293 280 280 286 328 308 307 306 305 312 310 310 309 314 318 309 316 327 326 324 324 322 318
254 271 255 273 278 279 271 290 298 299 282 298 274 250 265 293 306 323 319 316 328 301 257 292 301 312 312 307 310 313 312 314 316 319 311 316 326 325 323 321 322 324 320
248 271 263 268 263 265 270 275 276 278 295 294 271 272 262 271 274 291 291 306 315 297 272 282 301 306 311 307 310 312 315 316 314 311 316 324 327 317 316 323 328 323 323
247 252 258 265 256 256 266 261 271 265 278 273 272 268 256 261 252 258 275 306 293 280 279 282 294 295 296 303 307 312 315 305 306 312 319 320 314 314 321 325 327 326 328
230 243 259 262 265 275 264 255 268 264 275 267 264 267 268 254 245 254 263 287 296 263 273 276 278 273 289 296 307 313 307 307 312 318 313 312 313 318 324 326 328 329 333
254 248 259 259 259 289 283 242 275 269 279 270 284 265 259 268 268 262 265 271 269 261 255 244 255 279 286 290 292 304 306 313 312 307 307 311 316 322 326 328 328 331 335
263 251 251 271 270 263 282 270 267 264 276 276 277 274 272 270 268 266 264 254 250 248 247 265 278 290 297 299 294 302 307 304 303 303 307 313 319 324 327 328 331 334 338
258 255 245 256 260 272 279 276 275 277 277 272 274 279 275 270 272 275 262 256 242 240 248 271 281 290 309 292 282 297 300 299 301 305 311 316 320 324 327 330 332 334 339
257 249 250 255 255 263 276 286 289 288 283 279 276 276 271 275 274 269 261 259 252 241 247 276 280 283 305 283 296 298 299 294 299 303 309 314 320 323 326 329 333 334 337
254 251 266 278 271 265 267 277 275 274 272 274 279 282 288 287 286 274 268 256 242 254 253 257 266 289 286 291 287 291 291 294 299 304 309 316 320 323 325 328 332 330 336
249 254 260 266 270 261 260 268 270 276 282 285 289 297 298 295 292 292 271 249 239 236 229 233 246 271 278 279 284 287 289 294 300 305 311 315 319 321 324 326 329 325 331
Height
1516 1516 1517 1519 1525 1528 1528 1531 1534 1537 1539 1540 1542 1545 1547 1548 1550 1552 1552 1553 1553 1554 1554 1555 1555 1556 1556 1557 1557 1557 1558 1558 1555 1554 1553 1551 1546 1545 1542 1540 1536 1533 1532
1518 1515 1522 1523 1525 1529 1532 1532 1534 1536 1537 1539 1542 1545 1547 1549 1551 1552 1553 1554 1554 1554 1555 1554 1554 1554 1554 1556 1556 1556 1554 1555 1554 1550 1548 1545 1542 1539 1537 1533 1530 1528 1524
1515 1519 1523 1525 1524 1527 1531 1532 1534 1534 1537 1539 1541 1543 1546 1549 1550 1552 1553 1554 1554 1554 1555 1555 1554 1553 1553 1555 1554 1553 1552 1553 1552 1550 1544 1541 1538 1534 1530 1528 1526 1522 1520
1514 1520 1523 1524 1524 1527 1530 1533 1534 1534 1537 1539 1542 1543 1544 1548 1550 1551 1553 1554 1554 1554 1553 1553 1553 1553 1551 1550 1552 1552 1550 1549 1548 1546 1544 1539 1535 1531 1527 1522 1517 1516 1511
1517 1519 1521 1523 1524 1528 1531 1533 1532 1533 1537 1538 1541 1543 1544 1546 1548 1549 1550 1550 1550 1550 1551 1552 1552 1551 1551 1550 1549 1549 1547 1546 1545 1542 1537 1534 1530 1526 1523 1518 1512 1507 1503
1519 1519 1522 1522 1527 1531 1533 1533 1532 1533 1535 1537 1540 1541 1541 1544 1545 1547 1549 1549 1549 1549 1549 1550 1549 1548 1548 1547 1545 1544 1543 1542 1539 1537 1533 1529 1524 1521 1517 1512 1507 1500 1489
1519 1522 1520 1524 1529 1529 1534 1534 1534 1533 1534 1536 1539 1541 1542 1543 1544 1545 1547 1549 1549 1548 1547 1546 1545 1545 1544 1542 1541 1540 1540 1538 1535 1532 1530 1526 1519 1516 1510 1505 1501 1496 1489
1521 1521 1524 1525 1525 1529 1532 1533 1535 1535 1534 1536 1538 1540 1541 1542 1543 1544 1545 1545 1546 1544 1542 1542 1542 1540 1540 1539 1537 1536 1533 1532 1531 1528 1526 1520 1514 1511 1506 1499 1495 1489 1484
1519 1523 1526 1524 1523 1529 1530 1532 1537 1537 1536 1534 1536 1538 1539 1539 1540 1542 1542 1541 1541 1540 1539 1539 1538 1536 1534 1533 1531 1529 1527 1527 1524 1522 1517 1514 1510 1505 1501 1496 1490 1484 1477
1520 1523 1525 1525 1526 1528 1530 1531 1534 1537 1536 1535 1534 1535 1537 1537 1538 1538 1538 1537 1536 1534 1534 1533 1532 1531 1529 1527 1525 1522 1521 1519 1515 1512 1510 1506 1504 1499 1496 1493 1486 1479 1474
1519 1522 1524 1527 1526 1528 1530 1530 1533 1535 1533 1534 1533 1532 1533 1533 1533 1533 1532 1531 1530 1529 1528 1528 1526 1524 1522 1520 1519 1517 1515 1513 1508 1505 1501 1499 1497 1493 1488 1485 1481 1476 1469
1518 1522 1525 1528 1528 1526 1528 1530 1531 1531 1530 1530 1530 1529 1529 1528 1527 1528 1526 1525 1523 1521 1521 1520 1518 1518 1515 1514 1513 1512 1509 1506 1502 1498 1495 1494 1491 1485 1483 1480 1475 1469 1462
1520 1522 1525 1525 1524 1524 1526 1527 1528 1528 1526 1525 1524 1525 1524 1522 1521 1520 1519 1518 1518 1517 1516 1513 1513 1512 1512 1510 1509 1506 1503 1500 1497 1494 1491 1488 1484 1481 1476 1470 1464 1458 1450
1517 1519 1522 1521 1520 1523 1523 1525 1524 1522 1522 1521 1520 1519 1518 1517 1514 1513 1513 1512 1511 1511 1510 1509 1509 1508 1506 1504 1502 1500 1498 1496 1493 1490 1487 1483 1478 1473 1469 1463 1455 1448 1439
1512 1514 1517 1519 1518 1519 1519 1520 1519 1517 1516 1517 1515 1515 1514 1512 1511 1510 1509 1508 1507 1506 1506 1505 1505 1502 1500 1500 1498 1497 1494 1491 1488 1485 1481 1476 1471 1467 1461 1456 1449 1441 1433
1511 1512 1514 1515 1514 1514 1514 1515 1514 1512 1512 1512 1512 1512 1511 1510 1509 1508 1506 1505 1504 1502 1501 1501 1500 1499 1498 1496 1494 1492 1489 1486 1483 1479 1475 1470 1466 1460 1454 1449 1443 1436 1426
1507 1507 1508 1509 1509 1510 1510 1510 1510 1509 1509 1508 1507 1507 1507 1507 1506 1505 1504 1502 1501 1498 1498 1497 1496 1495 1493 1491 1490 1487 1484 1481 1478 1474 1469 1465 1460 1455 1449 1443 1436 1429 1419
1502 1504 1504 1506 1506 1507 1507 1506 1506 1505 1504 1503 1504 1503 1503 1503 1502 1502 1501 1500 1498 1495 1494 1493 1492 1491 1489 1488 1485 1482 1479 1476 1472 1468 1465 1460 1455 1449 1444 1438 1431 1423 1414
1499 1500 1501 1502 1503 1502 1502 1501 1501 1500 1499 1499 1499 1499 1498 1497 1497 1497 1495 1494 1493 1492 1490 1489 1488 1486 1484 1482 1480 1477 1474 1470 1467 1463 1459 1454 1450 1446 1440 1434 1426 1419 1411
1497 1497 1497 1496 1496 1496 1495 1495 1496 1495 1494 1493 1492 1493 1492 1491 1490 1489 1488 1486 1485 1484 1483 1482 1482 1481 1478 1476 1474 1472 1468 1465 1462 1458 1454 1450 1446 1442 1436 1429 1421 1413 1405
1492 1492 1492 1492 1491 1491 1489 1489 1490 1489 1488 1487 1486 1484 1484 1482 1481 1480 1480 1478 1478 1476 1477 1476 1474 1472 1471 1469 1468 1466 1462 1460 1457 1453 1449 1445 1441 1436 1431 1424 1417 1409 1402
1486 1487 1487 1487 1487 1486 1485 1485 1484 1484 1482 1481 1480 1478 1475 1474 1472 1471 1469 1469 1469 1468 1468 1469 1468 1466 1464 1462 1460 1459 1457 1454 1451 1448 1445 1440 1436 1431 1425 1419 1412 1405 1400
1480 1481 1481 1481 1481 1482 1481 1480 1478 1477 1475 1473 1473 1471 1469 1465 1465 1464 1462 1461 1460 1458 1459 1459 1460 1459 1458 1455 1454 1453 1450 1449 1446 1443 1439 1435 1431 1425 1420 1414 1408 1402 1398
1474 1474 1475 1475 1475 1474 1474 1473 1473 1471 1469 1466 1465 1463 1461 1460 1457 1456 1454 1453 1451 1449 1448 1449 1451 1452 1450 1449 1448 1446 1445 1443 1440 1437 1434 1430 1426 1420 1415 1410 1405 1400 1396
1468 1469 1470 1469 1468 1467 1467 1465 1463 1461 1460 1458 1456 1454 1453 1451 1447 1444 1439 1440 1443 1442 1440 1441 1441 1445 1445 1444 1442 1441 1439 1437 1434 1432 1429 1425 1420 1416 1411 1406 1401 1398 1395
1462 1463 1463 1463 1463 1462 1459 1458 1456 1453 1451 1449 1446 1443 1441 1438 1436 1434 1433 1433 1433 1434 1433 1433 1435 1438 1439 1438 1436 1435 1433 1430 1429 1426 1423 1420 1415 1410 1406 1402 1399 1396 1393